STARLINK-11127, 60119

Orbit data source: Space-Track

STARLINK-11127, 60119 is a payload satellite owned by SpaceX/Seattle (US) in LEO that was launched on Mon, 24 Jun 2024 UTC via an FALCON 9 launch vehicle from the Air Force Western Test Range (AFWTR). Payload-class satellites include a variety of spacecraft equipped with specific instruments for various scientific and technological missions. These include communications satellites like Starlink; space stations such as the ISS; scientific satellites like the Hubble; Earth observation satellites from companies like Planet Labs, Umbra, and HawkEye 360; GPS; miniature CubeSats for education and research; and military/defense satellites.

Loading next visibility...
Identifier
60119, 2024-118G
Orbit
LEO
Country
Flag of USUS
Related business
Manufacturer
SpaceX/Seattle
Mission
Operational Commercial Communications
Bus & Motor
STARLINK V2MD, Unknown motor
Mass
960 kg wet, ~910 kg dry
Launch date (UTC)
2024-06-24 (1 year ago)
Launch vehicle
FALCON 9
Launch site
Air Force Western Test Range (AFWTR)
Object type
Payload
Rocket body
Debris
Shape & HBR
Box + 2 Pan, 14.5 m
Radar Cross Section
33.884 m², Large (>1 m²)

Expand to show TLE details & history
Last TLE update: 8 hours ago

TLE from 8 hours ago
0 STARLINK-11127
1 60119U 24118G   25259.55401439 -.00002275  00000-0 -13937-4 0  9992
2 60119  53.1590 359.6642 0001019  93.9445 266.1689 15.69690918 70641
Epoch: 2025-09-16T13:17Z
TLE epoch observation values (Epoch: 2025-09-16T13:17:46.843Z)
Latitude
-0.00004°
Longitude
164.47634°
Altitude
360.742 km
Speed
7.694 km/s
True Right ascension
23h 58m 39s
True Declination
0° 00' 00"
Sunlit
Object was in full shadow at epoch
Visualization orbit readout
Latitude
Unknown
Longitude
Unknown
Altitude
Unknown
Speed
Unknown
Apparent Right ascension
Unknown
Apparent Declination
Unknown
Sunlit
N/A
Visualization observer readout
Local Sidereal Time
13:49:41
Azimuth
Unknown
Elevation
Unknown
Doppler factor
Unknown
Orbital elements
Apogee altitude
360.729 km
Perigee altitude
359.356 km
Semi-major axis
6,738.179 km
Eccentricity
0.0001
Inclination
53.159°
RAAN
359.6642°
Arg. of periapsis
93.9445°
True anomaly
266.15725°
Mean anomaly
266.1689°
Eccentric anomaly
266.16307°
Mean motion
3.924 °/min
Orbital period
91.74 mins
BSTAR
-0.000013937
Loading maneuver chart data...
Computing Atmospheric mass density...
Loading historical data...
Loading historical data...
Loading historical data...
Loading historical data...
Loading historical data...
Loading historical data...
Loading historical data...

Documentation

Showing up to 5 results
|